Location: Gro� Glienicke
(52.4675°N, 13.1079°E)
Time: 08:45:21
(UTC+00:00)

In-Cosmos 22 Rocket - Pass Details

Date: 06 July 2020
Orbit: 791 x 887 km, 81.2° (Epoch: 05 August)

Event Time Altitude Azimuth Distance (km) Brightness Sun altitude
Exits shadow 21:14:15 12° 174° (S) 2,229 5.8 -10.7°
Maximum altitude 21:19:06 59° 97° (E) 916 4.2 -11.0°
Drops below altitude 10° 21:24:21 10° 19° (NNE) 2,380 7.2 -11.3°
Sets 21:26:46 0° 16° (NNE) 3,323 8.1 -11.5°
